#timestamp,LO_Frequency,Hit,StdDev 
1582833615.3,286047000.5,N
1582833635.2,286047003.1,N
1582833655.0,286047003.4,N
1582833655.9,286047003.4,N
1582833675.8,286047004.3,N
1582833695.6,286047004.3,N
1582833715.4,286047002.2,N
1582833735.3,286046998.3,N
1582833755.1,286046999.4,N
1582833775.8,286046999.1,N
1582833795.7,286047002.2,N
1582833815.5,286047002.4,N
1582833835.4,286047003.9,N
1582833855.2,286047001.8,N
1582833875.0,286047000.4,N
1582833875.9,286047000.4,N
1582833895.8,286047004.0,N
1582833915.6,286047002.6,N
1582833935.5,286046999.9,N
1582833955.3,286047000.9,N
1582833975.1,286047001.0,N
1582833995.9,286047000.0,N
1582834015.7,286047000.7,N
1582834035.5,286047002.3,N
1582834055.4,286047001.8,N
1582834075.2,286047001.7,N
1582834095.1,286047003.7,N
1582834096.0,286047003.7,N
1582834115.8,286047001.3,N
1582834135.6,286047001.7,N
1582834155.5,286047001.8,N
1582834175.3,286047004.1,N
1582834195.2,286047004.1,N
1582834215.9,286047001.7,N
1582834235.7,286047001.9,N
1582834255.6,286047002.8,N
1582834275.4,286047002.3,N
1582834295.2,286047001.6,N
1582834315.1,286047001.9,N
1582834316.0,286047001.9,N
1582834335.8,286047001.1,N
1582834355.7,286047001.2,N
1582834375.5,286047000.3,N
1582834395.3,286047002.7,N
1582834415.2,286046999.9,N
1582834435.0,286047000.5,N
1582834435.9,286047000.5,N
1582834455.8,286047002.3,N
1582834475.6,286047002.1,N
1582834495.4,286046998.5,N
1582834515.3,286046997.0,N
1582834535.1,286046995.1,Y
1582834555.9,286046997.1,P
1582834575.7,286046995.6,N
1582834595.5,286046999.2,N
1582834615.4,286047001.2,N
1582834635.2,286047001.1,N
1582834655.0,286046999.6,N
1582834655.9,286046999.6,N
1582834675.8,286046995.5,N
1582834695.6,286046997.0,N
1582834715.5,286046997.4,N
1582834735.3,286046996.5,N
1582834755.1,286046995.3,N
1582834775.9,286046995.5,N
1582834795.7,286046996.7,N
1582834815.6,286046997.4,N
1582834835.4,286046997.8,N
1582834855.2,286046997.5,N
1582834875.1,286047000.8,N
1582834876.0,286047000.8,N
1582834895.8,286046999.0,N
1582834915.6,286046998.4,N
1582834935.5,286047000.2,N
1582834955.3,286047002.3,N
1582834975.2,286047001.3,N
1582834995.9,286047000.4,N
1582835015.7,286046998.2,N
1582835035.8,286047000.7,N
1582835055.6,286047000.4,N
1582835075.5,286047000.3,N
1582835095.3,286047002.6,N
1582835115.1,286047000.3,N
1582835135.9,286047000.7,N
1582835155.7,286047000.4,N
1582835175.6,286047000.6,N
1582835195.4,286047004.2,N
1582835215.2,286047003.8,N
1582835235.1,286047002.7,N
1582835236.0,286047002.7,N
1582835255.8,286047000.4,N
1582835275.7,286046998.3,N
1582835295.5,286046997.0,N
1582835315.3,286046999.0,N
1582835335.2,286046998.6,N
1582835355.0,286046998.7,N
1582835355.9,286046998.7,N
1582835375.8,286047002.6,N
1582835395.6,286046999.8,N
1582835415.4,286046999.3,N
1582835435.3,286046997.4,N
1582835455.1,286046998.9,N
1582835475.9,286046999.0,N
1582835495.7,286046996.7,N
1582835515.5,286046998.4,N
1582835535.4,286046998.4,N
1582835555.2,286047000.7,N
1582835575.0,286047000.7,N
1582835576.0,286047000.7,N
1582835595.8,286047000.8,N
1582835615.6,286047000.3,N
1582835635.5,286046999.8,N
1582835655.3,286046998.7,N
1582835675.1,286046998.9,N
1582835695.9,286046998.7,N
1582835715.7,286046996.7,N
1582835735.6,286046998.4,N
1582835755.4,286046998.4,N
1582835775.2,286047000.8,N
1582835795.1,286047000.0,N
1582835796.0,286047000.0,N
1582835815.8,286046998.1,N
1582835835.6,286046998.8,N
1582835855.5,286046999.0,N
1582835875.3,286046997.8,N
1582835895.2,286046997.6,N
1582835915.9,286046999.1,N
1582835935.7,286046999.9,N
1582835955.6,286047002.0,N
1582835975.4,286047000.8,N
1582835995.2,286047000.7,N
1582836015.1,286047000.8,N
1582836016.0,286047000.8,N
1582836035.8,286047000.3,N
1582836055.7,286047000.7,N
1582836075.5,286046998.4,N
1582836095.3,286046996.9,N
1582836115.2,286046998.4,N
1582836135.0,286046998.7,N
1582836135.9,286046998.7,N
1582836155.8,286047002.2,N
1582836175.6,286047002.7,N
1582836195.4,286047002.7,N
1582836215.3,286047001.9,N
1582836235.1,286047001.9,N
1582836255.8,286047002.2,N
1582836275.7,286047003.7,N
1582836295.5,286047001.9,N
1582836315.4,286047000.5,N
1582836335.2,286046998.6,N
1582836355.0,286047011.9,Y
1582836355.9,286047000.4,P
1582836375.8,286046998.1,P
1582836395.6,286046998.7,N
1582836415.5,286046998.9,N
1582836435.3,286046996.6,Y
1582836455.1,286046998.2,P
1582836475.9,286046998.1,P
1582836495.7,286047001.0,N
1582836515.5,286046998.6,N
1582836535.4,286046999.3,N
1582836555.2,286046999.5,N
1582836575.1,286046998.7,N
1582836576.0,286046998.7,N
1582836595.8,286046998.1,N
1582836615.6,286047000.5,N
1582836635.5,286047001.2,N
1582836655.3,286047000.8,N
1582836675.2,286047000.4,N
1582836695.9,286047000.9,N
1582836715.7,286047001.1,N
1582836735.6,286047001.0,N
1582836755.4,286046999.0,N
1582836775.2,286046999.0,N
1582836795.1,286046999.3,N
1582836796.0,286046999.3,N
1582836815.8,286046996.8,Y
1582836835.7,286046997.0,P
1582836855.5,286046999.1,N
1582836875.3,286046999.2,N
1582836895.2,286046997.3,N
1582836915.0,286046997.6,N
1582836915.9,286046997.6,N
1582836935.8,286046997.8,N
1582836955.6,286046995.4,Y
1582836975.4,286046997.9,P
1582836995.3,286046995.3,P
1582837015.1,286046995.2,P
1582837035.9,286046996.0,N
1582837055.7,286046996.0,Y
1582837075.5,286046998.4,P
1582837095.4,286046998.2,N
1582837115.2,286047000.7,N
1582837135.0,286047002.4,N
1582837136.0,286047002.4,N
1582837155.8,286047000.4,N
1582837175.6,286047000.2,N
1582837195.5,286047000.9,N
